Flag for USA

Past Weather in California City, California, USA — Yesterday and Last 2 Weeks

Now
64 °F

Clear.


Feels Like: 64 °F
Forecast: 95 / 59 °F
Wind: 12 mph from West

Location: Mojave Airport
Current Time: Sep 19, 2020 at 6:20:56 am
Latest Report: Sep 19, 2020 at 5:20 am
Visibility: 10 mi
Pressure29.96 "Hg(27.51 "Hg at 727m altitude)
Humidity: 64%
Dew Point: 52 °F
Location of California CityLocation

Past Weather in California City — Graph

°F

California City Temperature Yesterday

Maximum temperature yesterday: 95 °F (at 1:40 pm)
Minimum temperature yesterday: 64 °F (at 4:20 am)
Average temperature yesterday: 80 °F

High & Low Weather Summary for the Past Weeks

 TemperatureHumidityPressure
High108 °F (Sep 5, 3:00 pm)56% (Sep 19, 3:40 am)30.17 "Hg (Sep 19, 3:40 am)
Low55 °F (Sep 11, 5:20 am)3% (Sep 17, 2:40 pm)29.71 "Hg (Sep 8, 6:20 am)
Average80 °F18%30.02 "Hg
* Reported Sep 4 4:00 am — Sep 19 4:40 am, California City. Weather by CustomWeather, © 2020

Note: Actual official high and low records may vary slightly from our data, if they occured in-between our weather recording intervals... More about our weather records

California City Weather History for the Previous 24 Hours

Scroll right to see more
 ConditionsComfort  
Time TempWeatherWind HumidityBarometerVisibility
4:40 am
Sat, Sep 19
68 °FClear.12 mph56%29.95 "Hg9 mi
4:20 am68 °FClear.12 mph56%29.95 "Hg8 mi
4:00 am68 °FClear.13 mph56%29.95 "Hg8 mi
3:40 am68 °FClear.12 mph56%29.95 "Hg8 mi
3:20 am70 °FClear.12 mph53%29.95 "Hg8 mi
3:00 am70 °FClear.10 mph53%29.95 "Hg7 mi
2:40 am70 °FClear.10 mph50%29.95 "Hg8 mi
2:20 am72 °FClear.14 mph47%29.95 "Hg8 mi
2:00 am72 °FClear.13 mph47%29.95 "Hg8 mi
1:40 am73 °FClear.14 mph44%29.95 "Hg7 mi
1:20 am73 °FClear.23 mph44%29.95 "Hg7 mi
1:00 am73 °FClear.17 mph41%29.95 "Hg7 mi
12:40 am75 °FClear.17 mph36%29.96 "Hg6 mi
12:20 am75 °FClear.18 mph31%29.96 "Hg6 mi
12:00 am75 °FClear.16 mph29%29.96 "Hg7 mi
11:40 pm
Fri, Sep 18
77 °FClear.17 mph28%29.97 "Hg7 mi
11:20 pm77 °FClear.15 mph28%29.97 "Hg6 mi
11:00 pm75 °FHaze.13 mph27%29.97 "Hg6 mi
10:40 pm75 °FHaze.10 mph29%29.96 "Hg5 mi
9:00 pm77 °FPassing clouds.10 mph30%29.97 "Hg7 mi
8:40 pm77 °FPassing clouds.12 mph30%29.97 "Hg8 mi
8:20 pm79 °FPassing clouds.14 mph28%29.96 "Hg8 mi
8:00 pm79 °FClear.14 mph26%29.96 "Hg8 mi
7:40 pm81 °FClear.13 mph24%29.95 "Hg9 mi
7:20 pm82 °FClear.15 mph23%29.95 "Hg9 mi
7:00 pm84 °FClear.17 mph20%29.94 "Hg9 mi
6:20 pm84 °FSunny.13 mph22%29.94 "Hg9 mi
6:00 pm84 °FSunny.16 mph22%29.94 "Hg9 mi
5:40 pm86 °FSunny.20 mph22%29.93 "Hg9 mi
5:20 pm88 °FSunny.17 mph21%29.94 "Hg10 mi
4:40 pm91 °FSunny.20 mph20%29.93 "Hg10 mi
4:20 pm93 °FSunny.16 mph19%29.93 "Hg9 mi
4:00 pm93 °FSunny.16 mph16%29.93 "Hg10 mi
3:40 pm95 °FSunny.15 mph15%29.93 "Hg10 mi
3:20 pm95 °FSunny.13 mph15%29.93 "Hg9 mi
3:00 pm95 °FSunny.18 mph12%29.94 "Hg10 mi
2:40 pm95 °FSunny.15 mph12%29.94 "Hg10 mi
2:20 pm95 °FSunny.17 mph12%29.94 "Hg10 mi
2:00 pm95 °FSunny.14 mph12%29.95 "Hg10 mi
1:40 pm95 °FSunny.14 mph11%29.96 "Hg10 mi
1:20 pm93 °FSunny.14 mph12%29.97 "Hg10 mi
1:00 pm93 °FSunny.18 mph12%29.98 "Hg10 mi
12:20 pm93 °FSunny.14 mph10%29.99 "Hg10 mi
12:00 pm91 °FSunny.17 mph10%29.99 "Hg9 mi
11:40 am90 °FSunny.9 mph11%30.00 "Hg9 mi
11:20 am90 °FSunny.10 mph11%30.01 "Hg9 mi
11:00 am90 °FSunny.7 mph14%30.01 "Hg7 mi
10:40 am88 °FSunny.7 mph16%30.01 "Hg7 mi
10:20 am86 °FSunny.7 mph17%30.02 "Hg6 mi
10:00 am86 °FSunny.10 mph17%30.02 "Hg6 mi
9:00 am75 °FSunny.No wind24%30.02 "Hg6 mi
8:40 am73 °FSunny.No wind23%30.03 "Hg6 mi
8:20 am72 °FSunny.5 mph25%30.02 "Hg5 mi
8:00 am72 °FSunny.5 mph25%30.02 "Hg6 mi
7:40 am70 °FSunny.No wind29%30.02 "Hg4 mi
7:20 am72 °FSunny.3 mph27%30.01 "Hg5 mi
7:00 am68 °FSunny.No wind30%30.01 "Hg2 mi
6:40 am68 °FSunny.3 mph30%30.00 "Hg4 mi
6:20 am68 °FClear.6 mph28%29.99 "Hg7 mi
Weather by CustomWeather, © 2020

See weather overview